[[{"header":{"parameterUnit":"m.s-1","parameterCategory":1,"la1":30.2991,"la2":30.254,"lo1":-89.0895,"lo2":-89.0444,"dy":0.0017,"dx":0.0017,"nx":28,"ny":28,"refTime":"2025-06-20T09:00:00:Z","depth":0,"parameterNumber":2,"parameterNumberName":"U-component_of_WINDS"},"data":[0,0,0,0,0,0,0,0,0,0,0,0,0,0,0,0,0,0,0,0,0,0,0,0,0,0,0,0,0,0,0,0,0,0,0,0,0,0,0,0,0,0,0,0,0,0,0,0,0,0,0,0,0,0,0,0,0,0,2.4608,2.4609,0,2.4655,2.4656,2.4656,2.458,2.4577,2.4575,2.4572,2.4622,2.4626,2.463,0,0,0,0,0,0,0,0,0,0,0,0,0,2.4454,2.4457,2.4608,2.4609,2.461,2.4655,2.4656,2.4657,2.458,2.4577,2.4574,2.4571,2.4621,2.4625,2.463,0,0,0,0,0,0,0,0,0,0,0,0,0,2.4513,2.4458,2.4608,2.4577,2.4575,2.4655,2.4656,2.4657,2.4581,2.4577,2.4573,2.457,2.4619,2.4625,2.4631,2.4744,0,0,2.4648,2.465,0,0,0,0,0,0,0,0,2.451,2.4519,2.4581,2.4579,2.4577,2.4608,2.462,2.4686,2.4582,2.4579,2.4572,2.4568,2.4621,2.4626,2.4644,2.4747,2.4749,2.4648,2.4652,2.4654,2.4656,0,0,0,0,0,0,0,2.4506,2.4516,2.4627,2.4582,2.458,2.4561,2.4565,2.4632,2.4621,2.4579,2.4573,2.458,2.4619,2.4638,2.4644,2.4749,2.4648,2.4653,2.4657,2.4659,2.4947,2.4951,0,0,0,0,0,0,2.4505,2.4513,2.4626,2.4628,2.4533,2.4567,2.4571,2.4602,2.462,2.4619,2.4583,2.4576,2.4631,2.4638,2.4646,2.4779,2.4654,2.4659,2.4663,2.4943,2.4948,2.4952,0,0,0,0,0,0,2.4502,2.4516,2.4624,2.4569,2.4582,2.4574,2.4609,2.4605,2.4624,2.4624,2.4621,2.4605,2.4628,2.4638,2.472,2.478,2.4662,2.4667,2.4938,2.4944,2.495,2.5047,0,0,0,0,0,0,2.4498,2.4515,2.4558,2.4571,2.4585,2.4697,2.4612,2.4609,2.4634,2.4625,2.4643,2.4643,2.4625,2.4712,2.4726,2.4785,2.4672,2.4932,2.4941,2.4948,2.5039,2.5056,2.5071,0,0,0,0,0,2.4493,2.4585,2.4561,2.4575,2.4638,2.4701,2.4709,2.4686,2.4639,2.4682,2.4682,2.4642,2.4771,2.4721,2.4736,2.4798,2.4928,2.4938,2.4947,2.5032,2.5053,2.5071,0,0,0,0,0,0,2.458,2.4586,2.456,2.4658,2.468,2.4688,2.4742,2.471,2.4746,2.4736,2.4707,2.4712,2.48,2.4807,2.4752,2.4908,2.4842,2.4855,2.4901,2.4921,2.4937,2.4933,2.4676,0,0,0,0,0,2.4611,2.4661,2.4663,2.475,2.4762,2.475,2.4776,2.4757,2.4778,2.4787,2.4793,2.4815,2.486,2.4891,2.4933,2.5039,2.5042,2.509,2.5106,2.5119,2.5131,2.5186,2.5207,2.4984,2.4984,2.4984,0,0,2.4675,2.4684,2.4717,2.4767,2.4782,2.4834,2.4758,2.4817,2.4856,2.4796,2.4874,2.4879,2.4902,2.4997,2.5039,2.5005,2.5193,2.5131,2.5142,2.5146,2.5198,2.522,2.5238,2.499,2.4989,2.4988,0,0,2.4818,2.483,2.4903,2.4919,2.4941,2.4932,2.495,2.4963,2.4964,2.5041,2.4997,2.5043,2.5122,2.514,2.5159,2.5308,2.5273,2.5323,2.5407,2.5462,2.548,2.5495,2.5547,2.5567,2.5334,2.5334,2.5335,0,2.4895,2.4972,2.4945,2.5006,2.5029,2.4977,2.5051,2.5068,2.5103,2.512,2.5082,2.5179,2.5191,2.5289,2.5325,2.5343,2.5361,2.532,2.5479,2.5495,2.5509,2.5558,2.5578,2.534,2.534,2.5339,2.5338,0,2.5065,2.5119,2.5175,2.5209,2.5238,2.5306,2.5289,2.5322,2.5301,2.5296,2.5375,2.5387,2.543,2.5452,2.5432,2.5547,2.5525,2.5484,2.5416,2.5536,2.5582,2.5601,2.5349,2.5347,2.5345,2.5343,0,0,2.5265,2.5282,2.5304,2.5318,2.5338,2.5379,2.5444,2.5485,2.5514,2.554,2.5593,2.566,2.5622,2.5644,2.5625,2.5673,2.5789,2.5626,2.5626,2.5655,2.5915,2.5946,2.5968,2.5766,2.5769,2.5772,2.5913,0,2.5407,2.5518,2.5495,2.5604,2.5653,2.5604,2.566,2.5678,2.5676,2.5717,2.5714,2.5762,2.5708,2.5721,2.5766,2.5766,2.5841,2.5755,2.5815,2.5817,2.581,2.5992,2.6025,2.6158,2.5931,2.5934,2.5936,0,2.5587,2.5619,2.5732,2.5743,2.5763,2.5814,2.5849,2.5889,2.5909,2.5904,2.5928,2.59,2.5964,2.5895,2.5983,2.5925,2.5948,2.5951,2.5956,2.596,2.5884,2.6001,2.62,2.6219,2.5965,2.5962,2.596,0,2.5721,2.5792,2.5868,2.5882,2.5898,2.5934,2.5943,2.5958,2.5984,2.6015,2.6031,2.607,2.6091,2.6121,2.6103,2.6055,2.6194,2.6124,2.6191,2.6191,2.6222,2.622,2.6426,2.6238,2.6238,2.6238,2.6237,0,2.5881,2.5953,2.5928,2.5976,2.6054,2.6027,2.6105,2.6108,2.6122,2.6168,2.6129,2.6173,2.6148,2.619,2.6177,2.6251,2.6261,2.6258,2.6254,2.6262,2.6262,2.6276,2.6266,2.6243,2.6242,2.6241,2.624,0,2.6044,2.6031,2.6111,2.6118,2.6122,2.6179,2.6185,2.6229,2.6223,2.6282,2.6295,2.6286,2.6334,2.6319,2.6372,2.6362,2.6456,2.644,2.6449,2.6445,2.6512,2.6506,2.6734,2.6762,2.6557,2.6559,2.656,0,2.6147,2.6201,2.6213,2.6241,2.6252,2.6298,2.6323,2.6299,2.6328,2.6353,2.6394,2.6438,2.6472,2.6552,2.655,2.6589,2.6573,2.665,2.6579,2.6585,2.6573,2.657,2.6575,2.6665,2.6667,2.6669,2.6671,0,2.6331,2.6322,2.636,2.6396,2.6427,2.6455,2.6478,2.6504,2.6481,2.6515,2.6563,2.6589,2.6642,2.6686,2.6722,2.673,2.6697,2.6693,2.671,2.6719,2.6721,2.672,2.6487,2.6688,2.6686,2.6685,2.6684,2.6683,2.6467,2.6512,2.6527,2.6571,2.6586,2.6608,2.665,2.6648,2.6688,2.6728,2.6711,2.6766,2.6784,2.6828,2.6841,2.6883,2.6854,2.6879,2.6886,2.6892,2.69,2.6715,2.689,2.6889,2.6889,2.6888,2.6888,0,2.6648,2.6655,2.6696,2.673,2.6764,2.6729,2.6753,2.6784,2.6833,2.6851,2.6885,2.694,2.6982,2.6983,2.7023,2.7057,2.7042,2.7068,2.7065,2.7067,2.6925,2.6905,2.7079,2.7079,2.7079,2.7079,2.7079,2.7079,2.6747,2.682,2.6812,2.6892,2.6899,2.6952,2.6969,2.6989,2.7004,2.7067,2.7101,2.7101,2.7113,2.7152,2.7189,2.7188,2.7205,2.7236,2.7229,2.7096,2.7077,2.7059,2.7041,2.724,2.724,2.7368,2.7369,2.737]},{"header":{"parameterUnit":"m.s-1","parameterCategory":1,"la1":30.2991,"la2":30.254,"lo1":-89.0895,"lo2":-89.0444,"dy":0.0017,"dx":0.0017,"nx":28,"ny":28,"refTime":"2025-06-20T09:00:00:Z","depth":0,"parameterNumber":3,"parameterNumberName":"V-component_of_WINDS"},"data":[0,0,0,0,0,0,0,0,0,0,0,0,0,0,0,0,0,0,0,0,0,0,0,0,0,0,0,0,0,0,0,0,0,0,0,0,0,0,0,0,0,0,0,0,0,0,0,0,0,0,0,0,0,0,0,0,0,0,-0.581,-0.581,0,-0.5792,-0.5792,-0.5792,-0.579,-0.579,-0.579,-0.579,-0.5771,-0.5771,-0.577,0,0,0,0,0,0,0,0,0,0,0,0,0,-0.5844,-0.5843,-0.581,-0.581,-0.581,-0.5792,-0.5792,-0.5792,-0.579,-0.579,-0.579,-0.579,-0.5772,-0.5771,-0.577,0,0,0,0,0,0,0,0,0,0,0,0,0,-0.5828,-0.5843,-0.581,-0.5807,-0.5806,-0.5792,-0.5792,-0.5791,-0.579,-0.579,-0.579,-0.5791,-0.5772,-0.5771,-0.577,-0.5758,0,0,-0.5767,-0.5766,0,0,0,0,0,0,0,0,-0.5829,-0.5827,-0.5807,-0.5807,-0.5806,-0.5793,-0.5797,-0.578,-0.579,-0.5796,-0.579,-0.5791,-0.5779,-0.5777,-0.5773,-0.5757,-0.5756,-0.5767,-0.5766,-0.5766,-0.5765,0,0,0,0,0,0,0,-0.583,-0.5827,-0.5803,-0.5807,-0.5807,-0.5806,-0.5804,-0.5794,-0.5786,-0.5795,-0.5795,-0.5793,-0.5778,-0.5774,-0.5772,-0.5756,-0.5767,-0.5766,-0.5765,-0.5765,-0.573,-0.573,0,0,0,0,0,0,-0.5832,-0.5828,-0.5804,-0.5802,-0.5819,-0.5805,-0.5803,-0.5797,-0.5786,-0.5785,-0.5793,-0.5793,-0.5776,-0.5774,-0.5772,-0.5757,-0.5766,-0.5765,-0.5764,-0.573,-0.573,-0.573,0,0,0,0,0,0,-0.5832,-0.5829,-0.5804,-0.5815,-0.5812,-0.5805,-0.5798,-0.5797,-0.5792,-0.5784,-0.5783,-0.579,-0.5776,-0.5773,-0.5762,-0.5757,-0.5764,-0.5763,-0.5731,-0.573,-0.573,-0.5728,0,0,0,0,0,0,-0.5833,-0.583,-0.5825,-0.5815,-0.5812,-0.5794,-0.5798,-0.5796,-0.5791,-0.5791,-0.5781,-0.5779,-0.5776,-0.5763,-0.5761,-0.5755,-0.5762,-0.5731,-0.5731,-0.573,-0.5728,-0.5727,-0.5727,0,0,0,0,0,-0.5834,-0.5825,-0.5824,-0.5821,-0.5805,-0.5794,-0.5792,-0.5788,-0.579,-0.5785,-0.578,-0.578,-0.5758,-0.5762,-0.5759,-0.5753,-0.5731,-0.5731,-0.573,-0.5729,-0.5728,-0.5727,0,0,0,0,0,0,-0.5833,-0.5823,-0.5823,-0.581,-0.5803,-0.5794,-0.5787,-0.5786,-0.5778,-0.5779,-0.5774,-0.5772,-0.5761,-0.5756,-0.5761,-0.5742,-0.5745,-0.5744,-0.5745,-0.5744,-0.5743,-0.5744,-0.5762,0,0,0,0,0,-0.5832,-0.5823,-0.5815,-0.5804,-0.5801,-0.5795,-0.5789,-0.5787,-0.578,-0.5776,-0.577,-0.5763,-0.5755,-0.5749,-0.5741,-0.5728,-0.5726,-0.5723,-0.5722,-0.5721,-0.572,-0.5714,-0.5712,-0.5727,-0.5727,-0.5727,0,0,-0.5828,-0.5821,-0.5816,-0.5804,-0.5798,-0.5789,-0.5792,-0.5783,-0.5776,-0.5775,-0.5764,-0.5759,-0.5751,-0.5739,-0.5733,-0.5734,-0.5716,-0.572,-0.572,-0.5719,-0.5713,-0.5711,-0.571,-0.5727,-0.5727,-0.5727,0,0,-0.5816,-0.581,-0.5801,-0.5795,-0.5787,-0.5783,-0.5781,-0.5772,-0.5769,-0.5758,-0.5757,-0.575,-0.5735,-0.5729,-0.5725,-0.5713,-0.5712,-0.571,-0.5705,-0.5699,-0.5698,-0.5697,-0.5693,-0.5691,-0.5709,-0.5709,-0.5709,0,-0.5812,-0.5799,-0.5796,-0.5787,-0.5782,-0.5781,-0.5772,-0.5766,-0.5756,-0.5752,-0.5754,-0.5736,-0.5731,-0.5717,-0.5715,-0.5711,-0.5708,-0.5711,-0.5698,-0.5697,-0.5696,-0.5692,-0.5691,-0.5709,-0.5709,-0.5709,-0.5709,0,-0.5795,-0.5786,-0.578,-0.577,-0.5764,-0.5755,-0.5751,-0.5745,-0.5744,-0.574,-0.5729,-0.5723,-0.5713,-0.571,-0.5708,-0.5697,-0.5698,-0.5699,-0.5702,-0.5695,-0.5691,-0.5689,-0.5709,-0.5709,-0.5709,-0.5709,0,0,-0.5781,-0.577,-0.5768,-0.5764,-0.5755,-0.5748,-0.574,-0.5731,-0.5726,-0.572,-0.5712,-0.5701,-0.5702,-0.5696,-0.5694,-0.5689,-0.568,-0.5691,-0.5691,-0.5689,-0.5668,-0.5667,-0.5665,-0.568,-0.568,-0.568,-0.5668,0,-0.5768,-0.5752,-0.575,-0.5736,-0.5728,-0.5728,-0.5721,-0.5715,-0.5712,-0.5705,-0.5701,-0.5693,-0.5695,-0.5692,-0.5687,-0.5682,-0.5676,-0.5683,-0.5673,-0.5673,-0.5675,-0.5663,-0.5661,-0.5651,-0.5667,-0.5667,-0.5666,0,-0.5751,-0.5744,-0.5729,-0.5723,-0.572,-0.5713,-0.5705,-0.5699,-0.5692,-0.569,-0.5685,-0.5684,-0.5675,-0.5679,-0.5668,-0.5673,-0.5669,-0.5666,-0.5666,-0.5664,-0.5669,-0.5661,-0.5647,-0.5646,-0.5664,-0.5664,-0.5664,0,-0.5742,-0.5729,-0.5719,-0.5715,-0.5707,-0.5703,-0.5699,-0.5693,-0.5689,-0.5682,-0.5679,-0.5672,-0.5667,-0.5662,-0.5659,-0.5662,-0.5647,-0.5651,-0.5646,-0.5646,-0.5642,-0.5642,-0.5627,-0.564,-0.564,-0.564,-0.564,0,-0.5727,-0.5718,-0.5715,-0.5708,-0.5699,-0.5697,-0.5687,-0.5684,-0.5679,-0.5672,-0.5672,-0.5666,-0.5663,-0.5656,-0.5654,-0.5645,-0.5643,-0.5641,-0.564,-0.5641,-0.5641,-0.5638,-0.5638,-0.564,-0.564,-0.564,-0.564,0,-0.5715,-0.5712,-0.5701,-0.5695,-0.5694,-0.5687,-0.5682,-0.5676,-0.5673,-0.5665,-0.5663,-0.5659,-0.5651,-0.5648,-0.5638,-0.5637,-0.5626,-0.5627,-0.5629,-0.5628,-0.5623,-0.5623,-0.5605,-0.5603,-0.5617,-0.5617,-0.5617,0,-0.5706,-0.5699,-0.5693,-0.5688,-0.5685,-0.5678,-0.5673,-0.5671,-0.5667,-0.566,-0.5655,-0.5648,-0.5641,-0.5629,-0.5625,-0.5618,-0.5618,-0.5613,-0.5617,-0.5618,-0.5618,-0.5618,-0.5618,-0.5611,-0.5611,-0.5611,-0.5611,0,-0.5689,-0.5689,-0.5682,-0.5676,-0.5671,-0.5665,-0.566,-0.5656,-0.5654,-0.5649,-0.5641,-0.5637,-0.5628,-0.562,-0.5613,-0.561,-0.561,-0.561,-0.5608,-0.5608,-0.5609,-0.5609,-0.5626,-0.561,-0.561,-0.561,-0.561,-0.561,-0.5678,-0.5673,-0.5668,-0.5661,-0.5657,-0.5652,-0.5647,-0.5644,-0.5638,-0.563,-0.563,-0.5622,-0.5617,-0.5608,-0.5604,-0.5598,-0.56,-0.5597,-0.5596,-0.5596,-0.5595,-0.5611,-0.5597,-0.5597,-0.5597,-0.5597,-0.5597,0,-0.5662,-0.5659,-0.5653,-0.5646,-0.5641,-0.5642,-0.5637,-0.5632,-0.5626,-0.5621,-0.5615,-0.5607,-0.5601,-0.5597,-0.559,-0.5586,-0.5586,-0.5584,-0.5584,-0.5584,-0.5594,-0.5596,-0.5585,-0.5585,-0.5585,-0.5585,-0.5585,-0.5585,-0.5653,-0.5644,-0.5643,-0.5632,-0.5629,-0.5622,-0.5618,-0.5614,-0.5611,-0.5602,-0.5597,-0.5594,-0.559,-0.5584,-0.5578,-0.5577,-0.5574,-0.5573,-0.5572,-0.5582,-0.5583,-0.5584,-0.5586,-0.5572,-0.5572,-0.5562,-0.5562,-0.5561]}]]